[[{"header":{"parameterUnit":"m.s-1","parameterCategory":1,"la1":30.2991,"la2":30.254,"lo1":-89.0895,"lo2":-89.0444,"dy":0.0017,"dx":0.0017,"nx":28,"ny":28,"refTime":"2024-05-15T21:00:00:Z","depth":0,"parameterNumber":2,"parameterNumberName":"U-component_of_WINDS"},"data":[0,0,0,0,0,0,0,0,0,0,0,0,0,0,0,0,0,0,0,0,0,0,0,0,0,0,0,0,0,0,0,0,0,0,0,0,0,0,0,0,0,0,0,0,0,0,0,0,0,0,0,0,0,0,0,0,0,0,2.5891,2.5891,0,2.5975,2.5976,2.5977,2.5993,2.5992,2.5991,2.5991,2.6079,2.6082,2.6085,0,0,0,0,0,0,0,0,0,0,0,0,0,2.5745,2.5748,2.589,2.5892,2.5893,2.5975,2.5976,2.5977,2.5993,2.5992,2.5991,2.599,2.6078,2.6081,2.6085,0,0,0,0,0,0,0,0,0,0,0,0,0,2.5817,2.5749,2.589,2.591,2.5913,2.5975,2.5976,2.5978,2.5993,2.5992,2.5991,2.599,2.6077,2.6081,2.6085,2.6134,0,0,2.6099,2.6101,0,0,0,0,0,0,0,0,2.5813,2.5822,2.5906,2.5909,2.5912,2.5972,2.5957,2.603,2.5993,2.5963,2.5991,2.5989,2.6044,2.6051,2.607,2.6138,2.6142,2.61,2.6102,2.6104,2.6105,0,0,0,0,0,0,0,2.5808,2.5819,2.5924,2.5907,2.5911,2.5916,2.5925,2.5971,2.6008,2.5965,2.5967,2.5976,2.6046,2.6065,2.6072,2.6143,2.6099,2.6103,2.6106,2.6108,2.6258,2.6259,0,0,0,0,0,0,2.5799,2.5814,2.5921,2.5927,2.5859,2.5919,2.5929,2.5954,2.6008,2.6015,2.5977,2.5977,2.6058,2.6067,2.6075,2.6137,2.6104,2.6108,2.6111,2.6257,2.6258,2.626,0,0,0,0,0,0,2.5796,2.5808,2.5918,2.5871,2.5885,2.5923,2.595,2.5956,2.5976,2.6017,2.6024,2.599,2.6058,2.6069,2.612,2.614,2.611,2.6114,2.6255,2.6257,2.6259,2.626,0,0,0,0,0,0,2.5792,2.5807,2.5825,2.5871,2.5888,2.596,2.5952,2.5959,2.5983,2.5984,2.6031,2.6038,2.6058,2.6113,2.6124,2.6146,2.6118,2.6254,2.6256,2.6258,2.6258,2.6262,2.6265,0,0,0,0,0,2.5786,2.5822,2.5826,2.5839,2.5911,2.5961,2.5971,2.5993,2.5985,2.6004,2.6031,2.6036,2.6136,2.6118,2.6131,2.6154,2.6252,2.6255,2.6258,2.6257,2.6261,2.6265,0,0,0,0,0,0,2.5777,2.5828,2.5833,2.5885,2.5919,2.5964,2.5989,2.5996,2.6033,2.6032,2.6058,2.6069,2.6119,2.6141,2.612,2.6205,2.6194,2.6199,2.6188,2.6193,2.6196,2.619,2.6122,0,0,0,0,0,2.5781,2.5817,2.586,2.5902,2.5918,2.595,2.5973,2.5987,2.6024,2.6038,2.6068,2.6104,2.6144,2.6169,2.6208,2.6262,2.6273,2.6284,2.6287,2.629,2.6295,2.6327,2.6333,2.6269,2.6269,2.6269,0,0,2.579,2.5822,2.5844,2.5901,2.5929,2.5967,2.5962,2.6002,2.6031,2.6044,2.6095,2.6118,2.616,2.6213,2.6238,2.6233,2.6315,2.6293,2.6295,2.6299,2.6331,2.6337,2.6342,2.6271,2.6271,2.6271,0,0,2.5826,2.5853,2.5891,2.592,2.5962,2.5983,2.5993,2.6037,2.6053,2.6104,2.6116,2.6151,2.6218,2.6248,2.6272,2.632,2.6327,2.6332,2.6349,2.638,2.6385,2.639,2.6409,2.6415,2.6337,2.6337,2.6337,0,2.5831,2.5888,2.591,2.595,2.5976,2.5989,2.6029,2.6056,2.6109,2.6127,2.6121,2.6207,2.6235,2.6297,2.6309,2.6327,2.634,2.6327,2.6382,2.6387,2.6392,2.6411,2.6418,2.6337,2.6337,2.6337,2.6337,0,2.5894,2.5934,2.596,2.6011,2.6039,2.6079,2.6108,2.6134,2.6146,2.6168,2.6221,2.6256,2.6303,2.6319,2.633,2.6382,2.6378,2.6377,2.6367,2.6398,2.6416,2.6423,2.6338,2.6337,2.6337,2.6337,0,0,2.5927,2.599,2.5999,2.6023,2.6072,2.6103,2.6144,2.619,2.6213,2.6249,2.6285,2.6342,2.6342,2.6369,2.6385,2.6412,2.6451,2.6408,2.6409,2.6416,2.6512,2.6514,2.6522,2.6455,2.6457,2.6458,2.6509,0,2.5969,2.6042,2.6064,2.6126,2.6164,2.6178,2.6214,2.6248,2.6271,2.6307,2.6332,2.6372,2.6368,2.6385,2.6412,2.644,2.6471,2.6436,2.6491,2.6493,2.6481,2.6531,2.6533,2.658,2.6516,2.6518,2.6518,0,2.6029,2.6067,2.6132,2.6177,2.6194,2.6226,2.6271,2.6304,2.6344,2.6359,2.639,2.6403,2.6448,2.6434,2.6498,2.6474,2.6498,2.6515,2.6517,2.6524,2.6508,2.6541,2.6595,2.6603,2.6529,2.6529,2.6528,0,2.6048,2.6115,2.6164,2.6184,2.6237,2.626,2.6283,2.6322,2.6348,2.6388,2.6406,2.6449,2.6474,2.6508,2.6534,2.6521,2.6595,2.6583,2.661,2.661,2.6626,2.6625,2.6686,2.6639,2.6639,2.6638,2.6638,0,2.6094,2.6135,2.6173,2.6203,2.6249,2.6274,2.6319,2.6344,2.6378,2.6414,2.6429,2.6463,2.6493,2.6532,2.6552,2.6602,2.6613,2.6627,2.6632,2.6627,2.6625,2.6643,2.6641,2.664,2.664,2.664,2.6639,0,2.6124,2.6151,2.6206,2.6252,2.6265,2.6297,2.6337,2.6368,2.639,2.6436,2.6448,2.6485,2.6531,2.6559,2.6617,2.6631,2.6687,2.669,2.6674,2.6677,2.6703,2.67,2.6779,2.6791,2.6734,2.6734,2.6735,0,2.6153,2.6184,2.6234,2.6259,2.6283,2.6322,2.635,2.6376,2.6404,2.6453,2.6478,2.6524,2.6563,2.6636,2.6669,2.6714,2.6719,2.6744,2.6726,2.672,2.6722,2.6721,2.6725,2.6747,2.6748,2.6748,2.6748,0,2.6201,2.6213,2.6252,2.6296,2.6328,2.6364,2.64,2.642,2.6453,2.6484,2.6531,2.6561,2.6621,2.6668,2.6716,2.6741,2.6751,2.6753,2.6763,2.6758,2.6748,2.6755,2.6684,2.6752,2.6751,2.6751,2.6751,2.6751,2.6232,2.6261,2.6302,2.6345,2.6375,2.6408,2.644,2.6467,2.6506,2.6557,2.657,2.662,2.6661,2.6726,2.6753,2.6793,2.679,2.6802,2.6806,2.6809,2.681,2.674,2.6802,2.6802,2.6801,2.6801,2.6801,0,2.6283,2.631,2.6349,2.6399,2.6434,2.6439,2.6479,2.6508,2.6552,2.6588,2.6627,2.6682,2.6728,2.6764,2.6811,2.6837,2.6843,2.6849,2.6848,2.6854,2.6809,2.6798,2.6843,2.6843,2.6843,2.6843,2.6843,2.6843,2.6313,2.6364,2.6381,2.6447,2.6474,2.6522,2.6545,2.6577,2.6607,2.6668,2.6706,2.6729,2.6766,2.6817,2.686,2.6869,2.6887,2.6893,2.6903,2.6861,2.6857,2.6853,2.6842,2.6896,2.6896,2.6945,2.6945,2.6946]},{"header":{"parameterUnit":"m.s-1","parameterCategory":1,"la1":30.2991,"la2":30.254,"lo1":-89.0895,"lo2":-89.0444,"dy":0.0017,"dx":0.0017,"nx":28,"ny":28,"refTime":"2024-05-15T21:00:00:Z","depth":0,"parameterNumber":3,"parameterNumberName":"V-component_of_WINDS"},"data":[0,0,0,0,0,0,0,0,0,0,0,0,0,0,0,0,0,0,0,0,0,0,0,0,0,0,0,0,0,0,0,0,0,0,0,0,0,0,0,0,0,0,0,0,0,0,0,0,0,0,0,0,0,0,0,0,0,0,-2.3502,-2.3502,0,-2.3543,-2.3543,-2.3544,-2.3541,-2.3541,-2.354,-2.354,-2.358,-2.3582,-2.3583,0,0,0,0,0,0,0,0,0,0,0,0,0,-2.3422,-2.3424,-2.3502,-2.3502,-2.3503,-2.3543,-2.3543,-2.3544,-2.3541,-2.3541,-2.354,-2.3539,-2.358,-2.3582,-2.3584,0,0,0,0,0,0,0,0,0,0,0,0,0,-2.3459,-2.3424,-2.3502,-2.3507,-2.3507,-2.3542,-2.3543,-2.3544,-2.3542,-2.3541,-2.354,-2.3539,-2.3579,-2.3581,-2.3584,-2.3616,0,0,-2.3591,-2.3592,0,0,0,0,0,0,0,0,-2.3457,-2.3462,-2.3505,-2.3506,-2.3507,-2.3536,-2.353,-2.3568,-2.3542,-2.3529,-2.354,-2.3539,-2.3566,-2.357,-2.3579,-2.3618,-2.362,-2.3592,-2.3593,-2.3594,-2.3595,0,0,0,0,0,0,0,-2.3455,-2.3461,-2.3518,-2.3506,-2.3507,-2.3507,-2.3511,-2.3537,-2.3552,-2.353,-2.353,-2.3534,-2.3567,-2.3577,-2.358,-2.3621,-2.3591,-2.3594,-2.3595,-2.3596,-2.3692,-2.3693,0,0,0,0,0,0,-2.3451,-2.3458,-2.3517,-2.3519,-2.348,-2.3509,-2.3514,-2.3528,-2.3551,-2.3554,-2.3535,-2.3534,-2.3573,-2.3577,-2.3582,-2.3623,-2.3594,-2.3596,-2.3598,-2.3691,-2.3692,-2.3693,0,0,0,0,0,0,-2.3449,-2.3456,-2.3515,-2.3489,-2.3496,-2.3511,-2.3527,-2.3529,-2.3539,-2.3556,-2.3558,-2.3543,-2.3573,-2.3578,-2.3609,-2.3624,-2.3597,-2.36,-2.3689,-2.3691,-2.3692,-2.3705,0,0,0,0,0,0,-2.3447,-2.3456,-2.3468,-2.3489,-2.3498,-2.3541,-2.3528,-2.353,-2.3544,-2.3543,-2.3564,-2.3566,-2.3572,-2.3605,-2.3611,-2.3627,-2.3602,-2.3688,-2.369,-2.3692,-2.3704,-2.3707,-2.371,0,0,0,0,0,-2.3444,-2.3469,-2.3469,-2.3476,-2.3513,-2.3542,-2.3547,-2.3553,-2.3545,-2.3558,-2.3569,-2.3566,-2.3622,-2.3608,-2.3615,-2.3632,-2.3687,-2.3689,-2.3692,-2.3702,-2.3707,-2.371,0,0,0,0,0,0,-2.3448,-2.3472,-2.3472,-2.3504,-2.3521,-2.3541,-2.3558,-2.3558,-2.3577,-2.3575,-2.3583,-2.3587,-2.3618,-2.3628,-2.3613,-2.3666,-2.3653,-2.3657,-2.3659,-2.3663,-2.3667,-2.3664,-2.3604,0,0,0,0,0,-2.3453,-2.3475,-2.3494,-2.3521,-2.3529,-2.3542,-2.3555,-2.3559,-2.3577,-2.3584,-2.3597,-2.3614,-2.3636,-2.365,-2.3671,-2.3705,-2.3711,-2.3721,-2.3724,-2.3727,-2.373,-2.3751,-2.3757,-2.3701,-2.3701,-2.3701,0,0,-2.3463,-2.3479,-2.3491,-2.3522,-2.3536,-2.3558,-2.3548,-2.3572,-2.3589,-2.3587,-2.3617,-2.3628,-2.3648,-2.3681,-2.3696,-2.369,-2.3747,-2.373,-2.3732,-2.3734,-2.3754,-2.376,-2.3764,-2.3703,-2.3702,-2.3702,0,0,-2.3493,-2.3506,-2.3531,-2.3546,-2.3567,-2.3576,-2.3582,-2.3603,-2.361,-2.3641,-2.3641,-2.3661,-2.3698,-2.3713,-2.3725,-2.3764,-2.3762,-2.377,-2.3788,-2.3809,-2.3813,-2.3817,-2.3832,-2.3838,-2.3773,-2.3773,-2.3773,0,-2.3502,-2.3536,-2.3544,-2.3568,-2.3583,-2.3583,-2.3609,-2.3623,-2.365,-2.366,-2.3653,-2.3701,-2.3714,-2.3752,-2.3762,-2.3771,-2.3779,-2.3768,-2.3812,-2.3816,-2.382,-2.3834,-2.384,-2.3774,-2.3774,-2.3774,-2.3774,0,-2.3548,-2.3571,-2.3589,-2.3617,-2.3633,-2.3658,-2.367,-2.3685,-2.3688,-2.3698,-2.373,-2.3747,-2.3772,-2.3781,-2.3783,-2.382,-2.3816,-2.381,-2.3797,-2.3826,-2.384,-2.3845,-2.3776,-2.3775,-2.3775,-2.3775,0,0,-2.358,-2.3613,-2.3619,-2.3633,-2.3658,-2.3677,-2.3702,-2.3728,-2.3742,-2.3761,-2.3784,-2.3816,-2.3812,-2.3826,-2.3831,-2.3849,-2.388,-2.3841,-2.3842,-2.3849,-2.3924,-2.3929,-2.3935,-2.388,-2.3881,-2.3882,-2.3923,0,-2.3613,-2.366,-2.3668,-2.3709,-2.3732,-2.3734,-2.3757,-2.3775,-2.3785,-2.3807,-2.3818,-2.3842,-2.3833,-2.3842,-2.386,-2.3873,-2.3896,-2.387,-2.3902,-2.3903,-2.3898,-2.3942,-2.3947,-2.3985,-2.3928,-2.3929,-2.393,0,-2.3658,-2.368,-2.3723,-2.3748,-2.3757,-2.3778,-2.3803,-2.3823,-2.3845,-2.3851,-2.3868,-2.3871,-2.3899,-2.3885,-2.3925,-2.3907,-2.3921,-2.3929,-2.3931,-2.3935,-2.3918,-2.3948,-2.3997,-2.4003,-2.3938,-2.3937,-2.3937,0,-2.3679,-2.3719,-2.3751,-2.3762,-2.3791,-2.3806,-2.3818,-2.3839,-2.3854,-2.3877,-2.3887,-2.3912,-2.3926,-2.3945,-2.3956,-2.3944,-2.3995,-2.3981,-2.4002,-2.4002,-2.4013,-2.4012,-2.4066,-2.402,-2.402,-2.402,-2.402,0,-2.3716,-2.3743,-2.3761,-2.3781,-2.3812,-2.3822,-2.3852,-2.3864,-2.3883,-2.3906,-2.3908,-2.393,-2.3941,-2.3965,-2.3973,-2.4006,-2.4011,-2.4018,-2.402,-2.4018,-2.4018,-2.4028,-2.4026,-2.4022,-2.4021,-2.4021,-2.4021,0,-2.3745,-2.3758,-2.3793,-2.3818,-2.3825,-2.3847,-2.3869,-2.3888,-2.3899,-2.3928,-2.3935,-2.3953,-2.398,-2.3993,-2.4026,-2.4032,-2.407,-2.4069,-2.4063,-2.4064,-2.4085,-2.4083,-2.4147,-2.4157,-2.4104,-2.4104,-2.4105,0,-2.3768,-2.3789,-2.3817,-2.3833,-2.3846,-2.3871,-2.3888,-2.3899,-2.3916,-2.3944,-2.3961,-2.3989,-2.4012,-2.4056,-2.4072,-2.4098,-2.4099,-2.412,-2.4103,-2.4102,-2.4102,-2.4101,-2.4104,-2.4123,-2.4124,-2.4124,-2.4124,0,-2.3808,-2.3814,-2.3838,-2.3866,-2.3886,-2.3907,-2.3929,-2.3941,-2.3956,-2.3976,-2.4005,-2.4023,-2.4058,-2.4087,-2.4115,-2.4128,-2.413,-2.413,-2.4136,-2.4135,-2.4131,-2.4136,-2.4073,-2.4128,-2.4128,-2.4128,-2.4127,-2.4127,-2.3836,-2.3856,-2.3879,-2.3906,-2.3924,-2.3944,-2.3965,-2.3979,-2.4004,-2.4034,-2.404,-2.4071,-2.4094,-2.4132,-2.4147,-2.4172,-2.4167,-2.4176,-2.4178,-2.4181,-2.4183,-2.4127,-2.4177,-2.4177,-2.4176,-2.4176,-2.4176,0,-2.3877,-2.3893,-2.3918,-2.3949,-2.3971,-2.3971,-2.3995,-2.4014,-2.4042,-2.4063,-2.4086,-2.4121,-2.4149,-2.4168,-2.4197,-2.4214,-2.4215,-2.4221,-2.422,-2.4224,-2.4185,-2.4177,-2.422,-2.422,-2.422,-2.4219,-2.4219,-2.4219,-2.3902,-2.3936,-2.3945,-2.3989,-2.4004,-2.4036,-2.405,-2.4069,-2.4087,-2.4126,-2.415,-2.4162,-2.4183,-2.4214,-2.424,-2.4245,-2.4256,-2.4263,-2.4268,-2.4231,-2.4226,-2.4222,-2.4215,-2.4265,-2.4265,-2.4305,-2.4305,-2.4305]}]]